Location: Falconara Alta
(43.6167°N, 13.4000°E)
Time: 12:24:20
(UTC+00:00)

Cosmos 1461 - Pass Details

Date: 09 April 2020
Orbit: 506 x 660 km, 65.0° (Epoch: 05 June)

Event Time Altitude Azimuth Distance (km) Brightness Sun altitude
Rises 18:57:33 0° 324° (NW) 2,897 7.6 -13.6°
Reaches altitude 10° 18:59:48 10° 324° (NW) 2,009 6.7 -13.9°
Maximum altitude 19:04:22 79° 239° (WSW) 661 3.2 -14.7°
Enters shadow 19:07:43 19° 154° (SSE) 1,546 4.6 -15.2°
